This is the latest recevied weather packets stored in our database for station/object KC3UTO. If no packets are shown the sender has not sent any weather packets the latest 10 day(s).
| Time | Temp. | Humidity | Pressure | Rain* | Wind** | Luminosity | Snow |
|---|---|---|---|---|---|---|---|
| 1777218330 | 8.89° C | 76% | 1019.4 hPa | 0 mm | - | 200 W/m² | - |
| 1777218027 | 8.89° C | 76% | 1019.3 hPa | 0 mm | - | 177 W/m² | - |
| 1777217722 | 8.89° C | 77% | 1019.2 hPa | 0 mm | - | 172 W/m² | - |
| 1777217419 | 8.89° C | 76% | 1019.1 hPa | 0 mm | - | 148 W/m² | - |
| 1777217115 | 8.89° C | 77% | 1019.2 hPa | 0 mm | - | 167 W/m² | - |
| 1777216811 | 8.33° C | 78% | 1019.1 hPa | 0 mm | - | 173 W/m² | - |
| 1777216509 | 8.89° C | 78% | 1019.1 hPa | 0 mm | - | 172 W/m² | - |
| 1777216204 | 8.89° C | 78% | 1019 hPa | 0 mm | - | 190 W/m² | - |
| 1777215903 | 8.89° C | 78% | 1018.9 hPa | 0 mm | - | 228 W/m² | - |
| 1777215599 | 8.33° C | 79% | 1019 hPa | 0 mm | - | 226 W/m² | - |
| 1777215294 | 8.33° C | 80% | 1018.8 hPa | 0 mm | - | 214 W/m² | - |
| 1777214991 | 8.33° C | 80% | 1018.9 hPa | 0 mm | - | 205 W/m² | - |
| 1777214685 | 8.33° C | 80% | 1019 hPa | 0 mm | - | 160 W/m² | - |
| 1777214385 | 8.33° C | 79% | 1019.1 hPa | 0 mm | - | 165 W/m² | - |
| 1777214085 | 8.33° C | 81% | 1018.7 hPa | 0 mm | - | 166 W/m² | - |
| 1777213785 | 7.78° C | 80% | 1018.7 hPa | 0 mm | - | 215 W/m² | - |
| 1777213481 | 7.78° C | 81% | 1018.8 hPa | 0 mm | - | 149 W/m² | - |
| 1777213178 | 7.78° C | 82% | 1018.9 hPa | 0 mm | - | 199 W/m² | - |
| 1777212874 | 7.78° C | 81% | 1018.9 hPa | 0 mm | - | 187 W/m² | - |
| 1777212572 | 7.78° C | 82% | 1018.7 hPa | 0 mm | - | 167 W/m² | - |
| 1777212270 | 7.78° C | 82% | 1018.7 hPa | 0 mm | - | 168 W/m² | - |
| 1777211966 | 7.78° C | 83% | 1018.6 hPa | 0 mm | - | 147 W/m² | - |
| 1777211661 | 7.78° C | 83% | 1018.4 hPa | 0 mm | - | 143 W/m² | - |
| 1777211356 | 7.78° C | 83% | 1018.5 hPa | 0 mm | - | 162 W/m² | - |
| 1777211052 | 7.78° C | 83% | 1018.6 hPa | 0 mm | - | 166 W/m² | - |
* Rain latest hour (hover to see other rain measurements)
** Current wind speed in m/s (hover to see current wind gust speed)